Time,TemperatureF,DewpointF,PressureIn,WindDirection,WindDirectionDegrees,WindSpeedMPH,WindSpeedGustMPH,Humidity,HourlyPrecipIn,Conditions,Clouds,dailyrainin,SoftwareType,DateUTC
2013-07-27 00:03:00,71.5,69.0,30.00,NW,315,0.0,-999.0,91,-99.99,,,0.00,weatherlink.com 1.10,2013-07-27 04:03:00,
2013-07-27 00:19:00,71.4,69.0,30.00,NW,315,0.0,-999.0,92,-99.99,,,0.00,weatherlink.com 1.10,2013-07-27 04:19:00,
2013-07-27 00:34:00,70.9,69.0,30.00,NW,315,0.0,-999.0,92,-99.99,,,0.00,weatherlink.com 1.10,2013-07-27 04:34:00,
2013-07-27 00:49:00,70.7,68.0,30.00,NW,315,0.0,-999.0,92,-99.99,,,0.00,weatherlink.com 1.10,2013-07-27 04:49:00,
2013-07-27 01:04:00,70.6,68.0,29.99,NW,315,0.0,-999.0,92,-99.99,,,0.00,weatherlink.com 1.10,2013-07-27 05:04:00,
2013-07-27 01:19:00,70.4,68.0,29.99,NW,315,0.0,-999.0,92,-99.99,,,0.00,weatherlink.com 1.10,2013-07-27 05:19:00,
2013-07-27 01:34:00,70.6,68.0,29.98,NW,315,0.0,-999.0,92,-99.99,,,0.00,weatherlink.com 1.10,2013-07-27 05:34:00,
2013-07-27 01:49:00,70.3,68.0,29.99,NW,315,0.0,-999.0,92,-99.99,,,0.00,weatherlink.com 1.10,2013-07-27 05:49:00,
2013-07-27 02:04:00,69.9,68.0,29.99,NW,315,0.0,-999.0,92,-99.99,,,0.00,weatherlink.com 1.10,2013-07-27 06:04:00,
2013-07-27 02:19:00,69.5,67.0,30.00,NW,315,0.0,-999.0,92,-99.99,,,0.00,weatherlink.com 1.10,2013-07-27 06:19:00,
2013-07-27 02:34:00,69.4,67.0,30.00,NW,315,0.0,-999.0,92,-99.99,,,0.00,weatherlink.com 1.10,2013-07-27 06:34:00,
2013-07-27 02:49:00,69.4,67.0,30.00,NW,315,0.0,-999.0,92,-99.99,,,0.00,weatherlink.com 1.10,2013-07-27 06:49:00,
2013-07-27 03:04:00,69.4,67.0,29.99,NW,315,0.0,-999.0,92,-99.99,,,0.00,weatherlink.com 1.10,2013-07-27 07:04:00,
2013-07-27 03:19:00,69.2,67.0,29.99,NW,315,0.0,-999.0,92,-99.99,,,0.00,weatherlink.com 1.10,2013-07-27 07:19:00,
2013-07-27 03:34:00,69.1,67.0,29.99,NW,315,0.0,-999.0,92,-99.99,,,0.00,weatherlink.com 1.10,2013-07-27 07:34:00,
2013-07-27 03:49:00,69.1,67.0,29.98,NW,315,0.0,-999.0,92,-99.99,,,0.00,weatherlink.com 1.10,2013-07-27 07:49:00,
2013-07-27 04:04:00,69.0,67.0,29.97,NW,315,0.0,-999.0,92,-99.99,,,0.00,weatherlink.com 1.10,2013-07-27 08:04:00,
2013-07-27 04:19:00,68.5,66.0,29.97,NW,315,0.0,-999.0,92,-99.99,,,0.00,weatherlink.com 1.10,2013-07-27 08:19:00,
2013-07-27 04:34:00,68.4,66.0,29.97,NW,315,0.0,-999.0,92,-99.99,,,0.00,weatherlink.com 1.10,2013-07-27 08:34:00,
2013-07-27 04:49:00,68.1,66.0,29.98,NW,315,0.0,-999.0,92,-99.99,,,0.00,weatherlink.com 1.10,2013-07-27 08:49:00,
2013-07-27 05:04:00,68.1,66.0,29.98,NW,315,0.0,-999.0,92,-99.99,,,0.00,weatherlink.com 1.10,2013-07-27 09:04:00,
2013-07-27 05:19:00,68.1,66.0,29.98,NW,315,0.0,-999.0,92,-99.99,,,0.00,weatherlink.com 1.10,2013-07-27 09:19:00,
2013-07-27 05:34:00,68.1,66.0,29.98,NW,315,0.0,-999.0,92,-99.99,,,0.00,weatherlink.com 1.10,2013-07-27 09:34:00,
2013-07-27 05:49:00,68.3,66.0,29.98,NW,315,0.0,-999.0,92,-99.99,,,0.00,weatherlink.com 1.10,2013-07-27 09:49:00,
2013-07-27 06:04:00,68.3,66.0,29.97,NW,315,0.0,-999.0,92,-99.99,,,0.00,weatherlink.com 1.10,2013-07-27 10:04:00,
2013-07-27 06:19:00,68.4,66.0,29.98,NW,315,0.0,-999.0,92,-99.99,,,0.00,weatherlink.com 1.10,2013-07-27 10:19:00,
2013-07-27 06:34:00,68.3,66.0,29.98,NW,315,0.0,-999.0,92,-99.99,,,0.00,weatherlink.com 1.10,2013-07-27 10:34:00,
2013-07-27 06:49:00,68.3,66.0,29.98,NW,315,0.0,-999.0,92,-99.99,,,0.01,weatherlink.com 1.10,2013-07-27 10:49:00,
2013-07-27 07:04:00,68.6,66.0,29.98,NW,315,0.0,-999.0,92,-99.99,,,0.01,weatherlink.com 1.10,2013-07-27 11:04:00,
2013-07-27 07:19:00,68.6,66.0,29.98,NW,315,0.0,-999.0,92,-99.99,,,0.01,weatherlink.com 1.10,2013-07-27 11:19:00,
2013-07-27 07:34:00,68.3,66.0,29.99,NW,315,0.0,-999.0,92,-99.99,,,0.01,weatherlink.com 1.10,2013-07-27 11:34:00,
2013-07-27 07:49:00,68.2,66.0,29.99,NW,317,0.0,-999.0,92,-99.99,,,0.01,weatherlink.com 1.10,2013-07-27 11:49:00,
2013-07-27 08:04:00,68.4,66.0,29.99,NW,317,0.0,-999.0,92,-99.99,,,0.01,weatherlink.com 1.10,2013-07-27 12:04:00,
2013-07-27 08:19:00,69.0,67.0,29.99,NW,317,0.0,-999.0,92,-99.99,,,0.01,weatherlink.com 1.10,2013-07-27 12:19:00,
2013-07-27 08:34:00,69.8,67.0,29.99,NW,314,0.0,-999.0,92,-99.99,,,0.01,weatherlink.com 1.10,2013-07-27 12:34:00,
2013-07-27 08:49:00,71.1,69.0,29.99,NW,309,0.0,-999.0,92,-99.99,,,0.01,weatherlink.com 1.10,2013-07-27 12:49:00,
2013-07-27 09:04:00,71.6,70.0,30.00,SSW,196,0.0,-999.0,93,-99.99,,,0.01,weatherlink.com 1.10,2013-07-27 13:04:00,
2013-07-27 09:19:00,72.0,70.0,30.00,SSW,199,0.0,-999.0,92,-99.99,,,0.01,weatherlink.com 1.10,2013-07-27 13:19:00,
2013-07-27 09:34:00,72.7,70.0,30.01,SSW,207,0.0,-999.0,91,-99.99,,,0.01,weatherlink.com 1.10,2013-07-27 13:34:00,
2013-07-27 09:49:00,73.0,70.0,30.00,SSW,206,0.0,-999.0,90,-99.99,,,0.01,weatherlink.com 1.10,2013-07-27 13:49:00,
2013-07-27 10:04:00,73.4,70.0,30.00,SW,233,0.0,-999.0,89,-99.99,,,0.01,weatherlink.com 1.10,2013-07-27 14:04:00,
2013-07-27 10:19:00,74.3,70.0,29.99,WSW,255,3.0,-999.0,86,-99.99,,,0.01,weatherlink.com 1.10,2013-07-27 14:19:00,
2013-07-27 10:34:00,74.9,70.0,29.99,WSW,246,1.0,-999.0,84,-99.99,,,0.01,weatherlink.com 1.10,2013-07-27 14:34:00,
2013-07-27 10:49:00,75.9,71.0,29.99,WSW,244,6.0,-999.0,84,-99.99,,,0.01,weatherlink.com 1.10,2013-07-27 14:49:00,
2013-07-27 11:04:00,76.3,70.0,29.98,WNW,290,0.0,-999.0,82,-99.99,,,0.01,weatherlink.com 1.10,2013-07-27 15:04:00,
2013-07-27 11:19:00,77.2,71.0,29.99,WNW,284,3.0,-999.0,80,-99.99,,,0.01,weatherlink.com 1.10,2013-07-27 15:19:00,
2013-07-27 11:34:00,78.2,70.0,29.99,SW,223,2.0,-999.0,75,-99.99,,,0.01,weatherlink.com 1.10,2013-07-27 15:34:00,
2013-07-27 11:49:00,78.9,70.0,29.99,SSW,207,0.0,-999.0,73,-99.99,,,0.01,weatherlink.com 1.10,2013-07-27 15:49:00,
2013-07-27 12:04:00,78.2,70.0,29.99,West,278,0.0,-999.0,75,-99.99,,,0.01,weatherlink.com 1.10,2013-07-27 16:04:00,
2013-07-27 12:19:00,77.9,69.0,29.99,WNW,289,0.0,-999.0,75,-99.99,,,0.01,weatherlink.com 1.10,2013-07-27 16:19:00,
2013-07-27 12:34:00,79.2,69.0,29.98,WNW,302,0.0,-999.0,71,-99.99,,,0.01,weatherlink.com 1.10,2013-07-27 16:34:00,
2013-07-27 12:49:00,79.9,67.0,29.98,West,269,8.0,-999.0,64,-99.99,,,0.01,weatherlink.com 1.10,2013-07-27 16:49:00,
2013-07-27 13:04:00,81.1,69.0,29.98,West,261,6.0,-999.0,66,-99.99,,,0.01,weatherlink.com 1.10,2013-07-27 17:04:00,
2013-07-27 13:19:00,80.0,68.0,29.98,NW,315,0.0,-999.0,66,-99.99,,,0.01,weatherlink.com 1.10,2013-07-27 17:19:00,
2013-07-27 13:34:00,80.7,67.0,29.98,West,273,0.0,-999.0,63,-99.99,,,0.01,weatherlink.com 1.10,2013-07-27 17:34:00,
2013-07-27 13:49:00,81.0,65.0,29.97,WNW,295,0.0,-999.0,58,-99.99,,,0.01,weatherlink.com 1.10,2013-07-27 17:49:00,
2013-07-27 14:19:00,81.6,66.0,29.97,West,281,2.0,-999.0,59,-99.99,,,0.01,weatherlink.com 1.10,2013-07-27 18:19:00,
2013-07-27 14:34:00,81.0,66.0,29.96,North,355,3.0,-999.0,61,-99.99,,,0.01,weatherlink.com 1.10,2013-07-27 18:34:00,
2013-07-27 14:49:00,81.6,66.0,29.96,West,281,1.0,-999.0,59,-99.99,,,0.01,weatherlink.com 1.10,2013-07-27 18:49:00,
2013-07-27 15:04:00,81.1,67.0,29.96,WSW,258,9.0,-999.0,63,-99.99,,,0.01,weatherlink.com 1.10,2013-07-27 19:04:00,
2013-07-27 15:19:00,81.5,67.0,29.95,WNW,298,0.0,-999.0,61,-99.99,,,0.01,weatherlink.com 1.10,2013-07-27 19:19:00,
2013-07-27 15:34:00,81.7,68.0,29.95,NW,314,4.0,-999.0,64,-99.99,,,0.01,weatherlink.com 1.10,2013-07-27 19:34:00,
2013-07-27 15:49:00,81.3,67.0,29.95,NW,310,10.0,-999.0,62,-99.99,,,0.01,weatherlink.com 1.10,2013-07-27 19:49:00,
2013-07-27 16:04:00,81.3,67.0,29.94,NNW,333,4.0,-999.0,63,-99.99,,,0.01,weatherlink.com 1.10,2013-07-27 20:04:00,
2013-07-27 16:19:00,81.1,68.0,29.94,West,269,5.0,-999.0,65,-99.99,,,0.01,weatherlink.com 1.10,2013-07-27 20:19:00,
2013-07-27 16:34:00,80.7,68.0,29.94,WSW,250,6.0,-999.0,65,-99.99,,,0.01,weatherlink.com 1.10,2013-07-27 20:34:00,
2013-07-27 16:49:00,81.7,69.0,29.93,WNW,299,0.0,-999.0,66,-99.99,,,0.01,weatherlink.com 1.10,2013-07-27 20:49:00,
2013-07-27 17:04:00,81.3,69.0,29.93,NW,313,6.0,-999.0,67,-99.99,,,0.01,weatherlink.com 1.10,2013-07-27 21:04:00,
2013-07-27 17:19:00,80.7,70.0,29.93,WNW,288,0.0,-999.0,69,-99.99,,,0.01,weatherlink.com 1.10,2013-07-27 21:19:00,
2013-07-27 17:34:00,80.9,70.0,29.93,WSW,238,1.0,-999.0,69,-99.99,,,0.00,weatherlink.com 1.10,2013-07-27 21:34:00,
2013-07-27 17:50:00,80.4,69.0,29.93,WNW,295,0.0,-999.0,69,-99.99,,,0.00,weatherlink.com 1.10,2013-07-27 21:50:00,
2013-07-27 18:05:00,79.1,70.0,29.93,West,271,0.0,-999.0,73,-99.99,,,0.00,weatherlink.com 1.10,2013-07-27 22:05:00,
2013-07-27 18:20:00,78.6,70.0,29.93,West,277,4.0,-999.0,74,-99.99,,,0.00,weatherlink.com 1.10,2013-07-27 22:20:00,
2013-07-27 18:35:00,78.5,70.0,29.93,West,279,0.0,-999.0,76,-99.99,,,0.00,weatherlink.com 1.10,2013-07-27 22:35:00,
2013-07-27 18:50:00,78.2,70.0,29.93,West,260,2.0,-999.0,76,-99.99,,,0.00,weatherlink.com 1.10,2013-07-27 22:50:00,
2013-07-27 19:05:00,78.1,71.0,29.93,West,269,0.0,-999.0,78,-99.99,,,0.00,weatherlink.com 1.10,2013-07-27 23:05:00,
2013-07-27 19:20:00,78.1,71.0,29.93,West,268,0.0,-999.0,78,-99.99,,,0.00,weatherlink.com 1.10,2013-07-27 23:20:00,
2013-07-27 19:35:00,78.1,71.0,29.93,West,268,0.0,-999.0,78,-99.99,,,0.00,weatherlink.com 1.10,2013-07-27 23:35:00,
2013-07-27 19:50:00,77.7,71.0,29.93,West,263,0.0,-999.0,79,-99.99,,,0.00,weatherlink.com 1.10,2013-07-27 23:50:00,
2013-07-27 20:05:00,77.3,70.0,29.94,WSW,240,0.0,-999.0,79,-99.99,,,0.00,weatherlink.com 1.10,2013-07-28 00:05:00,
2013-07-27 20:20:00,77.1,70.0,29.94,WSW,242,0.0,-999.0,79,-99.99,,,0.00,weatherlink.com 1.10,2013-07-28 00:20:00,
2013-07-27 20:35:00,76.7,70.0,29.95,WSW,242,0.0,-999.0,80,-99.99,,,0.00,weatherlink.com 1.10,2013-07-28 00:35:00,
2013-07-27 20:50:00,76.4,70.0,29.94,WSW,242,0.0,-999.0,81,-99.99,,,0.00,weatherlink.com 1.10,2013-07-28 00:50:00,
2013-07-27 21:05:00,76.1,69.0,29.95,WSW,242,0.0,-999.0,78,-99.99,,,0.00,weatherlink.com 1.10,2013-07-28 01:05:00,
2013-07-27 21:20:00,76.0,68.0,29.95,WSW,242,0.0,-999.0,77,-99.99,,,0.00,weatherlink.com 1.10,2013-07-28 01:20:00,
2013-07-27 21:35:00,75.7,68.0,29.95,WSW,242,0.0,-999.0,77,-99.99,,,0.00,weatherlink.com 1.10,2013-07-28 01:35:00,
2013-07-27 21:50:00,75.5,67.0,29.96,WSW,243,0.0,-999.0,76,-99.99,,,0.00,weatherlink.com 1.10,2013-07-28 01:50:00,
2013-07-27 22:05:00,75.2,68.0,29.96,WSW,243,0.0,-999.0,77,-99.99,,,0.00,weatherlink.com 1.10,2013-07-28 02:05:00,
2013-07-27 22:20:00,74.9,68.0,29.96,WSW,243,0.0,-999.0,79,-99.99,,,0.00,weatherlink.com 1.10,2013-07-28 02:20:00,
2013-07-27 22:35:00,74.2,68.0,29.97,WSW,243,0.0,-999.0,81,-99.99,,,0.00,weatherlink.com 1.10,2013-07-28 02:35:00,
2013-07-27 22:50:00,73.6,67.0,29.97,WSW,243,0.0,-999.0,80,-99.99,,,0.00,weatherlink.com 1.10,2013-07-28 02:50:00,
2013-07-27 23:05:00,73.5,67.0,29.97,WSW,243,0.0,-999.0,81,-99.99,,,0.00,weatherlink.com 1.10,2013-07-28 03:05:00,
2013-07-27 23:20:00,73.0,67.0,29.97,WSW,243,0.0,-999.0,82,-99.99,,,0.00,weatherlink.com 1.10,2013-07-28 03:20:00,
2013-07-27 23:35:00,72.1,67.0,29.97,WSW,243,0.0,-999.0,85,-99.99,,,0.00,weatherlink.com 1.10,2013-07-28 03:35:00,
2013-07-27 23:50:00,71.9,68.0,29.97,WSW,243,0.0,-999.0,88,-99.99,,,0.00,weatherlink.com 1.10,2013-07-28 03:50:00,